| time (UTC) | temp C | wind direction | speed KPH | gust KPH | rain 1hr cm | rain 24hr cm | rain mn cm | humidity % | barometer mb |
| 20260508014156 | 7 | 346 | 0.0 | 0.0 | 0.00 | 0.00 | 0.00 | 64 | 1014.0 |
| 20260508013652 | 7 | 346 | 0.0 | 0.0 | 0.00 | 0.00 | 0.00 | 65 | 1013.8 |
| 20260508013148 | 7 | 346 | 0.0 | 0.0 | 0.00 | 0.00 | 0.00 | 66 | 1013.8 |
| 20260508012646 | 7 | 346 | 0.0 | 0.0 | 0.00 | 0.00 | 0.00 | 65 | 1013.8 |
| 20260508012143 | 7 | 346 | 0.0 | 0.0 | 0.00 | 0.00 | 0.00 | 67 | 1013.9 |
| 20260508011642 | 7 | 346 | 0.0 | 0.0 | 0.00 | 0.00 | 0.00 | 64 | 1013.9 |
| 20260508011139 | 7 | 346 | 0.0 | 0.0 | 0.00 | 0.00 | 0.00 | 65 | 1013.6 |
| 20260508010635 | 7 | 346 | 0.0 | 0.0 | 0.00 | 0.00 | 0.00 | 65 | 1013.8 |
| 20260508010133 | 8 | 346 | 0.0 | 0.0 | 0.00 | 0.00 | 0.00 | 65 | 1013.6 |
| 20260508005630 | 8 | 346 | 1.6 | 1.6 | 0.00 | 0.00 | 0.00 | 67 | 1013.7 |
| 20260508005127 | 8 | 349 | 0.0 | 1.6 | 0.00 | 0.00 | 0.00 | 65 | 1013.8 |
| 20260508004622 | 8 | 348 | 0.0 | 0.0 | 0.00 | 0.00 | 0.00 | 62 | 1013.5 |
| 20260508004119 | 9 | 349 | 0.0 | 0.0 | 0.00 | 0.00 | 0.00 | 61 | 1013.4 |
| 20260508003615 | 9 | 350 | 1.6 | 1.6 | 0.00 | 0.00 | 0.00 | 58 | 1013.3 |
| 20260508003114 | 9 | 349 | 0.0 | 0.0 | 0.00 | 0.00 | 0.00 | 62 | 1013.3 |
| 20260508002610 | 9 | 351 | 1.6 | 1.6 | 0.00 | 0.00 | 0.00 | 61 | 1013.3 |
| 20260508002108 | 10 | 353 | 0.0 | 0.0 | 0.00 | 0.00 | 0.00 | 57 | 1013.4 |
| 20260508001602 | 10 | 342 | 1.6 | 1.6 | 0.00 | 0.00 | 0.00 | 55 | 1013.0 |
| 20260508001059 | 10 | 343 | 4.8 | 4.8 | 0.00 | 0.00 | 0.00 | 53 | 1013.1 |
| 20260508000555 | 10 | 349 | 3.2 | 4.8 | 0.00 | 0.00 | 0.00 | 60 | 1013.1 |
| 20260508000052 | 10 | 349 | 1.6 | 1.6 | 0.00 | 0.00 | 0.00 | 58 | 1012.9 |
| 20260507235549 | 10 | 349 | 0.0 | 1.6 | 0.00 | 0.00 | 0.00 | 60 | 1012.7 |
| 20260507235046 | 10 | 355 | 0.0 | 1.6 | 0.00 | 0.00 | 0.00 | 63 | 1012.9 |
| 20260507234542 | 10 | 0 | 0.0 | 0.0 | 0.00 | 0.00 | 0.00 | 61 | 1012.6 |
| 20260507234039 | 10 | 359 | 0.0 | 1.6 | 0.00 | 0.00 | 0.00 | 60 | 1012.5 |
| 20260507233536 | 11 | 0 | 0.0 | 0.0 | 0.00 | 0.00 | 0.00 | 57 | 1012.5 |
| 20260507233035 | 11 | 5 | 1.6 | 3.2 | 0.00 | 0.00 | 0.00 | 62 | 1012.4 |
| 20260507232530 | 11 | 28 | 0.0 | 1.6 | 0.00 | 0.00 | 0.00 | 62 | 1012.7 |
| 20260507232027 | 11 | 355 | 0.0 | 0.0 | 0.00 | 0.00 | 0.00 | 59 | 1012.5 |
| 20260507231524 | 11 | 15 | 0.0 | 1.6 | 0.00 | 0.00 | 0.00 | 60 | 1012.6 |
| 20260507231022 | 11 | 23 | 4.8 | 8.0 | 0.00 | 0.00 | 0.00 | 58 | 1012.6 |
| 20260507230518 | 11 | 353 | 3.2 | 3.2 | 0.00 | 0.00 | 0.00 | 60 | 1012.6 |
| 20260507230015 | 11 | 52 | 4.8 | 4.8 | 0.00 | 0.00 | 0.00 | 59 | 1012.5 |
| 20260507225510 | 11 | 19 | 1.6 | 3.2 | 0.00 | 0.00 | 0.00 | 59 | 1012.5 |
| 20260507225007 | 11 | 9 | 3.2 | 3.2 | 0.00 | 0.00 | 0.00 | 56 | 1012.4 |
| 20260507224502 | 11 | 340 | 4.8 | 8.0 | 0.00 | 0.00 | 0.00 | 60 | 1012.7 |
| 20260507223958 | 11 | 3 | 3.2 | 3.2 | 0.00 | 0.00 | 0.00 | 58 | 1012.6 |
| 20260507223455 | 11 | 342 | 1.6 | 1.6 | 0.00 | 0.00 | 0.00 | 57 | 1012.4 |
| 20260507222952 | 11 | 344 | 1.6 | 3.2 | 0.00 | 0.00 | 0.00 | 57 | 1012.5 |
| 20260507222449 | 11 | 1 | 0.0 | 1.6 | 0.00 | 0.00 | 0.00 | 56 | 1012.3 |
| 20260507221945 | 12 | 348 | 1.6 | 3.2 | 0.00 | 0.00 | 0.00 | 58 | 1012.0 |
| 20260507221442 | 12 | 348 | 0.0 | 0.0 | 0.00 | 0.00 | 0.00 | 57 | 1012.2 |
| 20260507220938 | 12 | 359 | 4.8 | 4.8 | 0.00 | 0.00 | 0.00 | 56 | 1012.0 |
| 20260507220436 | 12 | 352 | 6.4 | 9.7 | 0.00 | 0.00 | 0.00 | 54 | 1012.0 |
| 20260507215933 | 12 | 350 | 1.6 | 1.6 | 0.00 | 0.00 | 0.00 | 54 | 1012.0 |
| 20260507215429 | 12 | 353 | 1.6 | 1.6 | 0.00 | 0.00 | 0.00 | 54 | 1011.8 |
| 20260507214926 | 12 | 353 | 3.2 | 3.2 | 0.00 | 0.00 | 0.00 | 53 | 1012.0 |
| 20260507214424 | 12 | 354 | 0.0 | 1.6 | 0.00 | 0.00 | 0.00 | 54 | 1011.9 |
| 20260507213919 | 12 | 354 | 1.6 | 1.6 | 0.00 | 0.00 | 0.00 | 49 | 1011.5 |
| 20260507213416 | 13 | 355 | 1.6 | 1.6 | 0.00 | 0.00 | 0.00 | 50 | 1011.4 |
| 20260507212913 | 13 | 357 | 0.0 | 1.6 | 0.00 | 0.00 | 0.00 | 52 | 1011.5 |
| 20260507212409 | 13 | 356 | 1.6 | 1.6 | 0.00 | 0.00 | 0.00 | 55 | 1011.7 |
| 20260507211906 | 12 | 357 | 1.6 | 1.6 | 0.00 | 0.00 | 0.00 | 56 | 1011.3 |
| 20260507211402 | 12 | 355 | 0.0 | 0.0 | 0.00 | 0.00 | 0.00 | 52 | 1011.5 |
| 20260507210859 | 13 | 355 | 0.0 | 1.6 | 0.00 | 0.00 | 0.00 | 50 | 1011.7 |
| 20260507210356 | 13 | 355 | 1.6 | 3.2 | 0.00 | 0.00 | 0.00 | 52 | 1011.6 |
| 20260507205853 | 13 | 356 | 0.0 | 0.0 | 0.00 | 0.00 | 0.00 | 51 | 1011.4 |
| 20260507205350 | 13 | 356 | 0.0 | 0.0 | 0.00 | 0.00 | 0.00 | 53 | 1011.4 |
| 20260507204846 | 13 | 357 | 0.0 | 0.0 | 0.00 | 0.00 | 0.00 | 51 | 1011.3 |
| 20260507204337 | 13 | 357 | 1.6 | 1.6 | 0.00 | 0.00 | 0.00 | 54 | 1011.5 |
| 20260507203835 | 13 | 357 | 1.6 | 1.6 | 0.00 | 0.00 | 0.00 | 53 | 1011.4 |
| 20260507203333 | 13 | 357 | 0.0 | 1.6 | 0.00 | 0.00 | 0.00 | 50 | 1011.5 |
| 20260507202829 | 13 | 357 | 3.2 | 3.2 | 0.00 | 0.00 | 0.00 | 52 | 1011.6 |
| 20260507202325 | 12 | 350 | 1.6 | 1.6 | 0.00 | 0.00 | 0.00 | 50 | 1011.3 |
| 20260507201821 | 12 | 349 | 3.2 | 3.2 | 0.00 | 0.00 | 0.00 | 54 | 1011.7 |
| 20260507201317 | 12 | 357 | 3.2 | 3.2 | 0.00 | 0.00 | 0.00 | 52 | 1011.5 |
| 20260507200814 | 12 | 350 | 3.2 | 3.2 | 0.00 | 0.00 | 0.00 | 50 | 1011.7 |
| 20260507200309 | 13 | 351 | 0.0 | 1.6 | 0.00 | 0.00 | 0.00 | 52 | 1011.5 |
| 20260507195805 | 13 | 351 | 0.0 | 1.6 | 0.00 | 0.00 | 0.00 | 49 | 1011.4 |
| 20260507195305 | 13 | 351 | 0.0 | 0.0 | 0.00 | 0.00 | 0.00 | 49 | 1011.5 |
| 20260507194800 | 13 | 351 | 0.0 | 0.0 | 0.00 | 0.00 | 0.00 | 50 | 1011.4 |
| 20260507194256 | 13 | 351 | 0.0 | 0.0 | 0.00 | 0.00 | 0.00 | 49 | 1011.5 |
| 20260507193753 | 14 | 351 | 4.8 | 4.8 | 0.00 | 0.00 | 0.00 | 49 | 1011.6 |
| 20260507193250 | 13 | 351 | 1.6 | 1.6 | 0.00 | 0.00 | 0.00 | 47 | 1011.6 |
| 20260507192746 | 13 | 351 | 3.2 | 3.2 | 0.00 | 0.00 | 0.00 | 47 | 1011.5 |
| 20260507192243 | 14 | 351 | 3.2 | 3.2 | 0.00 | 0.00 | 0.00 | 46 | 1011.6 |
| 20260507191739 | 14 | 351 | 0.0 | 1.6 | 0.00 | 0.00 | 0.00 | 47 | 1011.7 |
| 20260507191236 | 13 | 351 | 0.0 | 1.6 | 0.00 | 0.00 | 0.00 | 47 | 1011.6 |
| 20260507190732 | 13 | 351 | 1.6 | 3.2 | 0.00 | 0.00 | 0.00 | 49 | 1011.5 |
| 20260507190231 | 13 | 351 | 1.6 | 1.6 | 0.00 | 0.00 | 0.00 | 44 | 1011.7 |
| 20260507185729 | 13 | 351 | 1.6 | 1.6 | 0.00 | 0.00 | 0.00 | 48 | 1011.6 |
| 20260507185226 | 13 | 351 | 1.6 | 1.6 | 0.00 | 0.00 | 0.00 | 45 | 1011.6 |
| 20260507184723 | 13 | 351 | 4.8 | 4.8 | 0.00 | 0.00 | 0.00 | 43 | 1011.6 |
| 20260507184221 | 14 | 351 | 4.8 | 4.8 | 0.00 | 0.00 | 0.00 | 43 | 1011.7 |
| 20260507183717 | 14 | 353 | 0.0 | 0.0 | 0.00 | 0.00 | 0.00 | 50 | 1011.6 |
| 20260507183214 | 15 | 351 | 0.0 | 1.6 | 0.00 | 0.00 | 0.00 | 48 | 1011.6 |
| 20260507182712 | 14 | 351 | 1.6 | 3.2 | 0.00 | 0.00 | 0.00 | 43 | 1011.7 |
| 20260507182207 | 13 | 351 | 1.6 | 1.6 | 0.00 | 0.00 | 0.00 | 44 | 1011.7 |
| 20260507181704 | 14 | 352 | 1.6 | 3.2 | 0.00 | 0.00 | 0.00 | 45 | 1011.8 |
| 20260507181200 | 14 | 352 | 3.2 | 3.2 | 0.00 | 0.00 | 0.00 | 47 | 1011.7 |
| 20260507180656 | 13 | 351 | 3.2 | 3.2 | 0.00 | 0.00 | 0.00 | 48 | 1011.9 |
| 20260507180154 | 13 | 352 | 0.0 | 0.0 | 0.00 | 0.00 | 0.00 | 47 | 1011.9 |
| 20260507175649 | 13 | 352 | 1.6 | 1.6 | 0.00 | 0.00 | 0.00 | 45 | 1011.9 |
| 20260507175146 | 14 | 352 | 1.6 | 3.2 | 0.00 | 0.00 | 0.00 | 48 | 1011.8 |
| 20260507174643 | 15 | 351 | 0.0 | 0.0 | 0.00 | 0.00 | 0.00 | 46 | 1011.7 |
| 20260507174142 | 15 | 351 | 0.0 | 1.6 | 0.00 | 0.00 | 0.00 | 45 | 1011.8 |
| 20260507173639 | 14 | 351 | 1.6 | 3.2 | 0.00 | 0.00 | 0.00 | 45 | 1012.2 |
| 20260507173136 | 15 | 351 | 4.8 | 4.8 | 0.00 | 0.00 | 0.00 | 47 | 1011.8 |
| 20260507172632 | 15 | 352 | 1.6 | 3.2 | 0.00 | 0.00 | 0.00 | 50 | 1012.1 |
| 20260507172130 | 15 | 352 | 0.0 | 1.6 | 0.00 | 0.00 | 0.00 | 47 | 1012.2 |
| 20260507171629 | 13 | 352 | 1.6 | 3.2 | 0.00 | 0.00 | 0.00 | 49 | 1012.2 |
| 20260507171127 | 13 | 352 | 0.0 | 0.0 | 0.00 | 0.00 | 0.00 | 51 | 1012.3 |
| 20260507170624 | 13 | 352 | 1.6 | 3.2 | 0.00 | 0.00 | 0.00 | 50 | 1012.4 |
| 20260507170121 | 13 | 352 | 0.0 | 0.0 | 0.00 | 0.00 | 0.00 | 52 | 1012.4 |
| 20260507165616 | 13 | 352 | 0.0 | 0.0 | 0.00 | 0.00 | 0.00 | 53 | 1012.3 |
| 20260507165113 | 13 | 352 | 0.0 | 1.6 | 0.00 | 0.00 | 0.00 | 52 | 1012.0 |
| 20260507164609 | 14 | 352 | 1.6 | 3.2 | 0.00 | 0.00 | 0.00 | 48 | 1012.1 |
| 20260507164106 | 15 | 352 | 1.6 | 3.2 | 0.00 | 0.00 | 0.00 | 51 | 1012.1 |
| 20260507163603 | 15 | 352 | 0.0 | 1.6 | 0.00 | 0.00 | 0.00 | 49 | 1012.3 |
| 20260507163101 | 15 | 352 | 3.2 | 3.2 | 0.00 | 0.00 | 0.00 | 51 | 1012.4 |
| 20260507162556 | 14 | 352 | 0.0 | 0.0 | 0.00 | 0.00 | 0.00 | 50 | 1012.2 |
| 20260507162053 | 13 | 352 | 1.6 | 1.6 | 0.00 | 0.00 | 0.00 | 55 | 1012.4 |
| 20260507161549 | 12 | 352 | 1.6 | 3.2 | 0.00 | 0.00 | 0.00 | 54 | 1012.5 |
| 20260507161046 | 12 | 352 | 0.0 | 0.0 | 0.00 | 0.00 | 0.00 | 56 | 1012.5 |
| 20260507160542 | 12 | 352 | 0.0 | 0.0 | 0.00 | 0.00 | 0.00 | 56 | 1012.6 |
| 20260507160039 | 13 | 352 | 0.0 | 0.0 | 0.00 | 0.00 | 0.00 | 53 | 1012.7 |
| 20260507155534 | 13 | 352 | 1.6 | 1.6 | 0.00 | 0.00 | 0.00 | 54 | 1012.5 |
| 20260507155031 | 13 | 352 | 1.6 | 1.6 | 0.00 | 0.00 | 0.00 | 54 | 1012.4 |
| 20260507154528 | 12 | 353 | 1.6 | 3.2 | 0.00 | 0.00 | 0.00 | 57 | 1012.5 |
| 20260507154025 | 13 | 352 | 0.0 | 0.0 | 0.00 | 0.00 | 0.00 | 58 | 1012.6 |
| 20260507153522 | 13 | 352 | 0.0 | 0.0 | 0.00 | 0.00 | 0.00 | 53 | 1012.5 |
| 20260507153018 | 12 | 353 | 0.0 | 0.0 | 0.00 | 0.00 | 0.00 | 57 | 1012.5 |
| 20260507152514 | 12 | 353 | 4.8 | 4.8 | 0.00 | 0.00 | 0.00 | 56 | 1012.7 |
| 20260507152011 | 12 | 353 | 1.6 | 1.6 | 0.00 | 0.00 | 0.00 | 54 | 1012.7 |
| 20260507151507 | 13 | 353 | 1.6 | 3.2 | 0.00 | 0.00 | 0.00 | 57 | 1013.0 |
| 20260507151004 | 12 | 353 | 0.0 | 1.6 | 0.00 | 0.00 | 0.00 | 56 | 1013.0 |
| 20260507150501 | 13 | 353 | 0.0 | 0.0 | 0.00 | 0.00 | 0.00 | 54 | 1013.2 |
| 20260507145957 | 13 | 353 | 3.2 | 9.7 | 0.00 | 0.00 | 0.00 | 54 | 1012.9 |
| 20260507145453 | 12 | 353 | 0.0 | 0.0 | 0.00 | 0.00 | 0.00 | 56 | 1013.1 |
| 20260507144950 | 12 | 353 | 1.6 | 1.6 | 0.00 | 0.00 | 0.00 | 56 | 1013.1 |
| 20260507144447 | 13 | 353 | 1.6 | 4.8 | 0.00 | 0.00 | 0.00 | 53 | 1013.2 |
| 20260507143944 | 14 | 353 | 0.0 | 0.0 | 0.00 | 0.00 | 0.00 | 51 | 1013.2 |
| 20260507143442 | 14 | 353 | 0.0 | 0.0 | 0.00 | 0.00 | 0.00 | 50 | 1013.2 |
| 20260507142938 | 13 | 353 | 1.6 | 1.6 | 0.00 | 0.00 | 0.00 | 54 | 1013.2 |
| 20260507142434 | 14 | 353 | 3.2 | 3.2 | 0.00 | 0.00 | 0.00 | 52 | 1013.4 |
| 20260507141931 | 13 | 353 | 1.6 | 1.6 | 0.00 | 0.00 | 0.00 | 55 | 1013.3 |
| 20260507141427 | 13 | 353 | 0.0 | 0.0 | 0.00 | 0.00 | 0.00 | 60 | 1013.4 |
| 20260507140924 | 13 | 353 | 0.0 | 0.0 | 0.00 | 0.00 | 0.00 | 60 | 1013.6 |
| 20260507140420 | 12 | 351 | 0.0 | 0.0 | 0.00 | 0.00 | 0.00 | 64 | 1013.9 |
| 20260507135919 | 12 | 351 | 0.0 | 0.0 | 0.00 | 0.00 | 0.00 | 65 | 1013.7 |
| 20260507135414 | 11 | 350 | 0.0 | 0.0 | 0.00 | 0.00 | 0.00 | 67 | 1013.5 |
| 20260507134912 | 11 | 350 | 0.0 | 0.0 | 0.00 | 0.00 | 0.00 | 66 | 1013.6 |
| 20260507134408 | 11 | 351 | 0.0 | 1.6 | 0.00 | 0.00 | 0.00 | 65 | 1013.6 |
| 20260507133904 | 11 | 353 | 0.0 | 1.6 | 0.00 | 0.00 | 0.00 | 67 | 1013.9 |
| 20260507133400 | 11 | 350 | 0.0 | 0.0 | 0.00 | 0.00 | 0.00 | 71 | 1014.2 |
| 20260507132854 | 11 | 3 | 1.6 | 3.2 | 0.00 | 0.00 | 0.00 | 69 | 1013.9 |
| 20260507132349 | 11 | 348 | 1.6 | 1.6 | 0.00 | 0.00 | 0.00 | 71 | 1014.1 |
| 20260507131847 | 10 | 318 | 0.0 | 1.6 | 0.00 | 0.00 | 0.00 | 74 | 1014.0 |
| 20260507131343 | 10 | 288 | 1.6 | 1.6 | 0.00 | 0.00 | 0.00 | 73 | 1014.0 |
| 20260507130840 | 10 | 325 | 0.0 | 1.6 | 0.00 | 0.00 | 0.00 | 78 | 1014.0 |
| 20260507130337 | 8 | 325 | 1.6 | 1.6 | 0.00 | 0.00 | 0.00 | 79 | 1014.0 |
| 20260507125836 | 8 | 314 | 0.0 | 1.6 | 0.00 | 0.00 | 0.00 | 80 | 1013.9 |
| 20260507125333 | 7 | 304 | 0.0 | 0.0 | 0.00 | 0.00 | 0.00 | 82 | 1014.0 |
| 20260507124830 | 7 | 298 | 0.0 | 0.0 | 0.00 | 0.00 | 0.00 | 83 | 1013.8 |
| 20260507124326 | 7 | 316 | 0.0 | 0.0 | 0.00 | 0.00 | 0.00 | 85 | 1013.9 |
| 20260507123825 | 6 | 316 | 1.6 | 1.6 | 0.00 | 0.00 | 0.00 | 86 | 1013.6 |
| 20260507123322 | 6 | 316 | 0.0 | 0.0 | 0.00 | 0.00 | 0.00 | 87 | 1014.1 |
| 20260507122818 | 6 | 317 | 0.0 | 0.0 | 0.00 | 0.00 | 0.00 | 88 | 1013.8 |
| 20260507122314 | 6 | 342 | 0.0 | 0.0 | 0.00 | 0.00 | 0.00 | 90 | 1014.0 |
| 20260507121810 | 5 | 344 | 0.0 | 1.6 | 0.00 | 0.00 | 0.00 | 91 | 1013.9 |
| 20260507121306 | 5 | 308 | 0.0 | 0.0 | 0.00 | 0.00 | 0.00 | 93 | 1013.9 |
| 20260507120802 | 5 | 319 | 0.0 | 0.0 | 0.00 | 0.00 | 0.00 | 95 | 1014.2 |
| 20260507120259 | 5 | 320 | 0.0 | 0.0 | 0.00 | 0.00 | 0.00 | 96 | 1013.9 |
| 20260507115755 | 5 | 320 | 0.0 | 0.0 | 0.00 | 0.00 | 0.00 | 97 | 1014.0 |
| 20260507115251 | 5 | 320 | 0.0 | 0.0 | 0.00 | 0.00 | 0.00 | 98 | 1014.1 |
| 20260507114746 | 5 | 320 | 0.0 | 0.0 | 0.00 | 0.00 | 0.00 | 98 | 1014.1 |
| 20260507114244 | 5 | 320 | 0.0 | 0.0 | 0.00 | 0.00 | 0.00 | 98 | 1013.9 |
| 20260507113741 | 4 | 320 | 0.0 | 0.0 | 0.00 | 0.00 | 0.00 | 98 | 1014.1 |
| 20260507113238 | 4 | 320 | 0.0 | 0.0 | 0.00 | 0.00 | 0.00 | 98 | 1014.0 |
| 20260507112736 | 4 | 320 | 0.0 | 0.0 | 0.00 | 0.00 | 0.00 | 98 | 1014.0 |
| 20260507112233 | 4 | 320 | 0.0 | 0.0 | 0.00 | 0.00 | 0.00 | 98 | 1013.9 |
| 20260507111731 | 3 | 320 | 0.0 | 0.0 | 0.00 | 0.00 | 0.00 | 98 | 1014.0 |
| 20260507111227 | 3 | 320 | 0.0 | 0.0 | 0.00 | 0.00 | 0.00 | 98 | 1013.6 |
| 20260507110723 | 3 | 321 | 0.0 | 0.0 | 0.00 | 0.00 | 0.00 | 98 | 1013.6 |
| 20260507110220 | 3 | 320 | 0.0 | 0.0 | 0.00 | 0.00 | 0.00 | 98 | 1013.7 |
| 20260507105717 | 3 | 318 | 0.0 | 0.0 | 0.00 | 0.00 | 0.00 | 98 | 1013.7 |
| 20260507105213 | 3 | 316 | 0.0 | 0.0 | 0.00 | 0.00 | 0.00 | 98 | 1013.7 |
| 20260507104710 | 3 | 344 | 0.0 | 1.6 | 0.00 | 0.00 | 0.00 | 98 | 1013.7 |
| 20260507104206 | 3 | 343 | 0.0 | 0.0 | 0.00 | 0.00 | 0.00 | 98 | 1013.8 |
| 20260507103702 | 2 | 342 | 0.0 | 0.0 | 0.00 | 0.00 | 0.00 | 98 | 1013.6 |
| 20260507103159 | 2 | 342 | 0.0 | 0.0 | 0.00 | 0.00 | 0.00 | 98 | 1013.6 |
| 20260507102655 | 2 | 342 | 0.0 | 0.0 | 0.00 | 0.00 | 0.00 | 98 | 1013.7 |
| 20260507102152 | 2 | 343 | 0.0 | 0.0 | 0.00 | 0.00 | 0.00 | 98 | 1013.4 |
| 20260507101648 | 2 | 343 | 0.0 | 0.0 | 0.00 | 0.00 | 0.00 | 98 | 1013.5 |
| 20260507101143 | 2 | 343 | 0.0 | 0.0 | 0.00 | 0.00 | 0.00 | 98 | 1013.6 |
| 20260507100641 | 2 | 342 | 0.0 | 0.0 | 0.00 | 0.00 | 0.00 | 98 | 1013.4 |
| 20260507100140 | 3 | 343 | 0.0 | 0.0 | 0.00 | 0.00 | 0.00 | 98 | 1013.5 |
| 20260507095637 | 3 | 343 | 0.0 | 0.0 | 0.00 | 0.00 | 0.00 | 98 | 1013.4 |
| 20260507095133 | 2 | 343 | 0.0 | 0.0 | 0.00 | 0.00 | 0.00 | 97 | 1013.5 |
| 20260507094630 | 3 | 343 | 0.0 | 0.0 | 0.00 | 0.00 | 0.00 | 97 | 1013.4 |
| 20260507094127 | 2 | 343 | 0.0 | 0.0 | 0.00 | 0.00 | 0.00 | 97 | 1013.4 |
| 20260507093624 | 3 | 343 | 0.0 | 0.0 | 0.00 | 0.00 | 0.00 | 97 | 1013.5 |
| 20260507093123 | 3 | 343 | 0.0 | 0.0 | 0.00 | 0.00 | 0.00 | 97 | 1013.5 |
| 20260507092619 | 3 | 343 | 0.0 | 0.0 | 0.00 | 0.00 | 0.00 | 97 | 1013.4 |
| 20260507092115 | 3 | 343 | 0.0 | 0.0 | 0.00 | 0.00 | 0.00 | 97 | 1013.7 |
| 20260507091612 | 3 | 343 | 0.0 | 0.0 | 0.00 | 0.00 | 0.00 | 97 | 1013.5 |
| 20260507091108 | 3 | 343 | 0.0 | 0.0 | 0.00 | 0.00 | 0.00 | 97 | 1013.7 |
| 20260507090604 | 3 | 343 | 0.0 | 0.0 | 0.00 | 0.00 | 0.00 | 97 | 1013.7 |
| 20260507085558 | 3 | 343 | 0.0 | 0.0 | 0.00 | 0.00 | 0.00 | 97 | 1013.7 |
| 20260507085055 | 3 | 342 | 0.0 | 0.0 | 0.00 | 0.00 | 0.00 | 97 | 1013.6 |
| 20260507084552 | 3 | 343 | 0.0 | 0.0 | 0.00 | 0.00 | 0.00 | 97 | 1013.5 |
| 20260507084049 | 3 | 342 | 0.0 | 0.0 | 0.00 | 0.00 | 0.00 | 97 | 1013.5 |
| 20260507083545 | 3 | 343 | 0.0 | 0.0 | 0.00 | 0.00 | 0.00 | 96 | 1013.7 |
| 20260507083042 | 3 | 343 | 0.0 | 0.0 | 0.00 | 0.00 | 0.00 | 96 | 1013.5 |
| 20260507082538 | 3 | 343 | 0.0 | 0.0 | 0.00 | 0.00 | 0.00 | 96 | 1013.7 |
| 20260507082035 | 3 | 343 | 0.0 | 0.0 | 0.00 | 0.00 | 0.00 | 96 | 1013.8 |
| 20260507081531 | 3 | 343 | 0.0 | 0.0 | 0.00 | 0.00 | 0.00 | 95 | 1013.7 |
| 20260507081028 | 3 | 343 | 0.0 | 0.0 | 0.00 | 0.00 | 0.00 | 95 | 1013.8 |
| 20260507080523 | 3 | 343 | 0.0 | 0.0 | 0.00 | 0.00 | 0.00 | 95 | 1013.7 |
| 20260507080020 | 3 | 343 | 0.0 | 0.0 | 0.00 | 0.00 | 0.00 | 95 | 1014.0 |
| 20260507075516 | 3 | 343 | 0.0 | 0.0 | 0.00 | 0.00 | 0.00 | 95 | 1014.1 |
| 20260507075013 | 3 | 343 | 0.0 | 0.0 | 0.00 | 0.00 | 0.00 | 94 | 1014.2 |
| 20260507074509 | 3 | 343 | 0.0 | 0.0 | 0.00 | 0.00 | 0.00 | 94 | 1014.0 |
| 20260507074008 | 3 | 343 | 0.0 | 0.0 | 0.00 | 0.00 | 0.00 | 94 | 1014.2 |
| 20260507073503 | 3 | 343 | 0.0 | 0.0 | 0.00 | 0.00 | 0.00 | 94 | 1014.1 |
| 20260507073000 | 3 | 343 | 0.0 | 0.0 | 0.00 | 0.00 | 0.00 | 94 | 1014.0 |
| 20260507072458 | 3 | 343 | 0.0 | 0.0 | 0.00 | 0.00 | 0.00 | 94 | 1013.9 |
| 20260507071955 | 3 | 343 | 0.0 | 0.0 | 0.00 | 0.00 | 0.00 | 93 | 1013.9 |
| 20260507071452 | 4 | 343 | 0.0 | 0.0 | 0.00 | 0.00 | 0.00 | 93 | 1014.0 |
| 20260507070948 | 4 | 343 | 0.0 | 0.0 | 0.00 | 0.00 | 0.00 | 93 | 1014.1 |
| 20260507070446 | 4 | 343 | 0.0 | 0.0 | 0.00 | 0.00 | 0.00 | 93 | 1014.1 |
| 20260507065942 | 5 | 343 | 0.0 | 0.0 | 0.00 | 0.00 | 0.00 | 93 | 1014.0 |
| 20260507065439 | 5 | 348 | 0.0 | 0.0 | 0.00 | 0.00 | 0.00 | 93 | 1013.9 |
| 20260507064936 | 5 | 349 | 0.0 | 0.0 | 0.00 | 0.00 | 0.00 | 92 | 1013.8 |
| 20260507064435 | 4 | 349 | 0.0 | 0.0 | 0.00 | 0.00 | 0.00 | 91 | 1014.0 |
| 20260507063932 | 5 | 349 | 0.0 | 0.0 | 0.00 | 0.00 | 0.00 | 90 | 1014.3 |
| 20260507063429 | 5 | 349 | 0.0 | 0.0 | 0.00 | 0.00 | 0.00 | 90 | 1014.3 |
| 20260507062926 | 5 | 349 | 0.0 | 0.0 | 0.00 | 0.00 | 0.00 | 90 | 1014.3 |
| 20260507062423 | 5 | 349 | 0.0 | 0.0 | 0.00 | 0.00 | 0.00 | 89 | 1014.5 |
| 20260507061920 | 5 | 349 | 0.0 | 0.0 | 0.00 | 0.00 | 0.00 | 89 | 1014.4 |
| 20260507061418 | 5 | 349 | 0.0 | 0.0 | 0.00 | 0.00 | 0.00 | 88 | 1014.5 |
| 20260507060916 | 5 | 349 | 0.0 | 0.0 | 0.00 | 0.00 | 0.00 | 88 | 1014.5 |
| 20260507060407 | 5 | 349 | 0.0 | 0.0 | 0.00 | 0.00 | 0.00 | 88 | 1014.3 |
| 20260507055903 | 5 | 349 | 0.0 | 0.0 | 0.00 | 0.00 | 0.00 | 87 | 1014.4 |
| 20260507055358 | 5 | 349 | 0.0 | 0.0 | 0.00 | 0.00 | 0.00 | 86 | 1014.7 |
| 20260507054856 | 5 | 349 | 0.0 | 0.0 | 0.00 | 0.00 | 0.00 | 86 | 1014.8 |
| 20260507054352 | 5 | 349 | 0.0 | 0.0 | 0.00 | 0.00 | 0.00 | 85 | 1014.5 |
| 20260507053849 | 5 | 349 | 0.0 | 0.0 | 0.00 | 0.00 | 0.00 | 84 | 1014.6 |
| 20260507053347 | 5 | 349 | 0.0 | 0.0 | 0.00 | 0.00 | 0.00 | 83 | 1014.7 |
| 20260507052845 | 5 | 349 | 0.0 | 0.0 | 0.00 | 0.00 | 0.00 | 82 | 1014.5 |
| 20260507052342 | 5 | 349 | 0.0 | 0.0 | 0.00 | 0.00 | 0.00 | 81 | 1014.5 |
| 20260507051840 | 5 | 349 | 0.0 | 0.0 | 0.00 | 0.00 | 0.00 | 82 | 1014.3 |
| 20260507051337 | 6 | 349 | 0.0 | 0.0 | 0.00 | 0.00 | 0.00 | 83 | 1014.4 |
| 20260507050834 | 6 | 349 | 0.0 | 0.0 | 0.00 | 0.00 | 0.00 | 81 | 1014.4 |
| 20260507050330 | 6 | 349 | 0.0 | 0.0 | 0.00 | 0.00 | 0.00 | 80 | 1014.6 |
| 20260507045827 | 6 | 349 | 0.0 | 0.0 | 0.00 | 0.00 | 0.00 | 81 | 1014.7 |
| 20260507045324 | 6 | 349 | 0.0 | 0.0 | 0.00 | 0.00 | 0.00 | 82 | 1014.7 |
| 20260507044821 | 6 | 349 | 0.0 | 0.0 | 0.00 | 0.00 | 0.00 | 80 | 1014.8 |
| 20260507044318 | 6 | 349 | 0.0 | 0.0 | 0.00 | 0.00 | 0.00 | 80 | 1015.1 |
| 20260507043813 | 6 | 349 | 0.0 | 0.0 | 0.00 | 0.00 | 0.00 | 80 | 1014.9 |
| 20260507043310 | 6 | 349 | 0.0 | 0.0 | 0.00 | 0.00 | 0.00 | 78 | 1014.9 |
| 20260507042807 | 6 | 349 | 0.0 | 0.0 | 0.00 | 0.00 | 0.00 | 78 | 1015.0 |
| 20260507042306 | 6 | 349 | 0.0 | 0.0 | 0.00 | 0.00 | 0.00 | 79 | 1014.9 |
| 20260507041800 | 6 | 349 | 0.0 | 0.0 | 0.00 | 0.00 | 0.00 | 77 | 1015.0 |
| 20260507041256 | 6 | 349 | 0.0 | 0.0 | 0.00 | 0.00 | 0.00 | 79 | 1015.0 |
| 20260507040753 | 6 | 349 | 0.0 | 0.0 | 0.00 | 0.00 | 0.00 | 80 | 1015.3 |
| 20260507040249 | 6 | 349 | 0.0 | 0.0 | 0.00 | 0.00 | 0.00 | 78 | 1015.2 |
| 20260507035745 | 6 | 349 | 0.0 | 0.0 | 0.00 | 1.40 | 1.40 | 77 | 1015.2 |
| 20260507035240 | 6 | 349 | 0.0 | 0.0 | 0.00 | 1.40 | 1.40 | 76 | 1015.0 |
| 20260507034738 | 6 | 349 | 0.0 | 0.0 | 0.00 | 1.40 | 1.40 | 77 | 1015.0 |
| 20260507034235 | 6 | 349 | 0.0 | 0.0 | 0.00 | 1.40 | 1.40 | 79 | 1015.0 |
| 20260507033733 | 6 | 349 | 0.0 | 0.0 | 0.00 | 1.40 | 1.40 | 77 | 1015.1 |
| 20260507033231 | 6 | 349 | 0.0 | 0.0 | 0.00 | 1.40 | 1.40 | 76 | 1014.9 |
| 20260507032728 | 6 | 349 | 0.0 | 0.0 | 0.00 | 1.40 | 1.40 | 76 | 1014.9 |
| 20260507032224 | 6 | 349 | 0.0 | 0.0 | 0.00 | 1.40 | 1.40 | 75 | 1015.1 |
| 20260507031721 | 7 | 349 | 0.0 | 0.0 | 0.00 | 1.40 | 1.40 | 76 | 1015.1 |
| 20260507031217 | 7 | 349 | 0.0 | 0.0 | 0.00 | 1.40 | 1.40 | 77 | 1015.2 |
| 20260507030714 | 7 | 349 | 0.0 | 0.0 | 0.00 | 1.40 | 1.40 | 76 | 1015.2 |
| 20260507030212 | 7 | 349 | 0.0 | 0.0 | 0.00 | 1.40 | 1.40 | 76 | 1015.3 |
| 20260507025709 | 7 | 349 | 0.0 | 0.0 | 0.00 | 1.40 | 1.40 | 75 | 1015.0 |
| 20260507025206 | 7 | 349 | 0.0 | 0.0 | 0.00 | 1.40 | 1.40 | 74 | 1015.1 |
| 20260507024704 | 7 | 349 | 0.0 | 0.0 | 0.00 | 1.40 | 1.40 | 74 | 1015.0 |
| 20260507024200 | 7 | 349 | 0.0 | 0.0 | 0.00 | 1.40 | 1.40 | 74 | 1015.0 |
| 20260507023656 | 7 | 349 | 0.0 | 0.0 | 0.00 | 1.40 | 1.40 | 75 | 1015.0 |
| 20260507023154 | 7 | 349 | 0.0 | 0.0 | 0.00 | 1.40 | 1.40 | 74 | 1014.9 |
| 20260507022651 | 7 | 349 | 0.0 | 0.0 | 0.00 | 1.40 | 1.40 | 75 | 1014.9 |
| 20260507022146 | 7 | 349 | 0.0 | 0.0 | 0.00 | 1.40 | 1.40 | 73 | 1014.8 |
| 20260507021643 | 7 | 349 | 0.0 | 0.0 | 0.00 | 1.40 | 1.40 | 73 | 1014.7 |
| 20260507021138 | 7 | 305 | 0.0 | 0.0 | 0.00 | 1.40 | 1.40 | 74 | 1014.8 |
| 20260507020637 | 7 | 323 | 0.0 | 0.0 | 0.00 | 1.40 | 1.40 | 73 | 1014.5 |
| 20260507020132 | 7 | 330 | 0.0 | 0.0 | 0.00 | 1.40 | 1.40 | 72 | 1014.3 |
| 20260507015631 | 7 | 330 | 0.0 | 0.0 | 0.00 | 1.40 | 1.40 | 75 | 1014.5 |
| 20260507015128 | 7 | 330 | 0.0 | 0.0 | 0.00 | 1.40 | 1.40 | 73 | 1014.5 |